| time (UTC) | temp C | wind direction | speed KPH | gust KPH | rain 1hr cm | rain 24hr cm | rain mn cm | humidity % | barometer mb |
| 20260906210003 | 20 | 360 | 16.1 | 40.2 | 0.00 | 0.00 | 0.00 | 56 | |
| 20260906205613 | 21 | 360 | 16.1 | 32.2 | 0.00 | 0.00 | 0.00 | 56 | |
| 20260906204503 | 21 | 360 | 14.5 | 29.0 | 0.00 | 0.00 | 0.00 | 54 | |
| 20260906203603 | 21 | 360 | 11.3 | 29.0 | 0.00 | 0.00 | 0.00 | 52 | |
| 20260906202703 | 22 | 360 | 12.9 | 29.0 | 0.00 | 0.00 | 0.00 | 51 | |
| 20260906201803 | 21 | 360 | 12.9 | 24.1 | 0.00 | 0.00 | 0.00 | 52 | |
| 20260906200903 | 21 | 360 | 12.9 | 27.4 | 0.00 | 0.00 | 0.00 | 52 | |
| 20260906200003 | 21 | 360 | 19.3 | 35.4 | 0.00 | 0.00 | 0.00 | 51 | |
| 20260906195403 | 21 | 360 | 19.3 | 37.0 | 0.00 | 0.00 | 0.00 | 50 | |
| 20260906194714 | 22 | 360 | 17.7 | 35.4 | 0.00 | 0.00 | 0.00 | 49 | |
| 20260906193603 | 22 | 360 | 12.9 | 27.4 | 0.00 | 0.00 | 0.00 | 51 | |
| 20260906192913 | 21 | 360 | 16.1 | 32.2 | 0.00 | 0.00 | 0.00 | 52 | |
| 20260906191803 | 21 | 360 | 17.7 | 33.8 | 0.00 | 0.00 | 0.00 | 53 | |
| 20260906190903 | 21 | 360 | 17.7 | 30.6 | 0.00 | 0.00 | 0.00 | 53 | |
| 20260906190004 | 21 | 360 | 11.3 | 30.6 | 0.00 | 0.00 | 0.00 | 54 | |
| 20260906185403 | 21 | 360 | 12.9 | 27.4 | 0.00 | 0.00 | 0.00 | 54 | |
| 20260906184503 | 21 | 360 | 17.7 | 40.2 | 0.00 | 0.00 | 0.00 | 53 | |
| 20260906183603 | 21 | 360 | 12.9 | 37.0 | 0.00 | 0.00 | 0.00 | 53 | |
| 20260906182703 | 22 | 360 | 12.9 | 24.1 | 0.00 | 0.00 | 0.00 | 50 | |
| 20260906182014 | 21 | 360 | 12.9 | 24.1 | 0.00 | 0.00 | 0.00 | 50 | |
| 20260906180903 | 21 | 360 | 11.3 | 29.0 | 0.00 | 0.00 | 0.00 | 54 | |
| 20260906180003 | 22 | 360 | 12.9 | 30.6 | 0.00 | 0.00 | 0.00 | 49 | |
| 20260906175403 | 22 | 360 | 11.3 | 27.4 | 0.00 | 0.00 | 0.00 | 47 | |
| 20260906174713 | 22 | 360 | 14.5 | 27.4 | 0.00 | 0.00 | 0.00 | 46 | |
| 20260906173603 | 22 | 360 | 12.9 | 27.4 | 0.00 | 0.00 | 0.00 | 46 | |
| 20260906172703 | 22 | 358 | 12.9 | 29.0 | 0.00 | 0.00 | 0.00 | 45 | |
| 20260906172014 | 22 | 212 | 12.9 | 27.4 | 0.00 | 0.00 | 0.00 | 44 | |
| 20260906170903 | 23 | 360 | 12.9 | 25.7 | 0.00 | 0.00 | 0.00 | 43 | |
| 20260906170003 | 23 | 68 | 12.9 | 25.7 | 0.00 | 0.00 | 0.00 | 42 | |
| 20260906165403 | 23 | 360 | 11.3 | 25.7 | 0.00 | 0.00 | 0.00 | 44 | |
| 20260906164503 | 22 | 360 | 9.7 | 19.3 | 0.00 | 0.00 | 0.00 | 44 | |
| 20260906163603 | 22 | 360 | 9.7 | 20.9 | 0.00 | 0.00 | 0.00 | 44 | |
| 20260906162703 | 22 | 360 | 11.3 | 25.7 | 0.00 | 0.00 | 0.00 | 44 | |
| 20260906161803 | 22 | 360 | 12.9 | 33.8 | 0.00 | 0.00 | 0.00 | 44 | |
| 20260906161112 | 22 | 360 | 11.3 | 29.0 | 0.00 | 0.00 | 0.00 | 45 | |
| 20260906160003 | 21 | 360 | 12.9 | 29.0 | 0.00 | 0.00 | 0.00 | 45 | |
| 20260906155403 | 21 | 360 | 14.5 | 30.6 | 0.00 | 0.00 | 0.00 | 46 | |
| 20260906154503 | 21 | 360 | 11.3 | 25.7 | 0.00 | 0.00 | 0.00 | 46 | |
| 20260906153603 | 20 | 360 | 8.0 | 19.3 | 0.00 | 0.00 | 0.00 | 48 | |
| 20260906152703 | 20 | 339 | 8.0 | 19.3 | 0.00 | 0.00 | 0.00 | 49 | |
| 20260906151803 | 18 | 228 | 3.2 | 11.3 | 0.00 | 0.00 | 0.00 | 54 | |
| 20260906150903 | 16 | 245 | 1.6 | 8.0 | 0.00 | 0.00 | 0.00 | 57 | |
| 20260906150003 | 16 | 257 | 0.0 | 4.8 | 0.00 | 0.00 | 0.00 | 57 | |
| 20260906145403 | 16 | 273 | 0.0 | 3.2 | 0.00 | 0.00 | 0.00 | 59 | |
| 20260906144503 | 15 | 306 | 3.2 | 6.4 | 0.00 | 0.00 | 0.00 | 59 | |
| 20260906143603 | 15 | 236 | 1.6 | 6.4 | 0.00 | 0.00 | 0.00 | 61 | |
| 20260906142703 | 15 | 188 | 0.0 | 3.2 | 0.00 | 0.00 | 0.00 | 63 | |
| 20260906142012 | 14 | 188 | 0.0 | 3.2 | 0.00 | 0.00 | 0.00 | 60 | |
| 20260906140903 | 14 | 187 | 0.0 | 1.6 | 0.00 | 0.00 | 0.00 | 59 | |
| 20260906140003 | 14 | 196 | 1.6 | 6.4 | 0.00 | 0.00 | 0.00 | 59 | |
| 20260906135403 | 13 | 212 | 0.0 | 6.4 | 0.00 | 0.00 | 0.00 | 61 | |
| 20260906134503 | 13 | 235 | 0.0 | 4.8 | 0.00 | 0.00 | 0.00 | 60 | |
| 20260906133603 | 13 | 235 | 0.0 | 1.6 | 0.00 | 0.00 | 0.00 | 60 | |
| 20260906132703 | 13 | 235 | 0.0 | 3.2 | 0.00 | 0.00 | 0.00 | 59 | |
| 20260906132014 | 13 | 235 | 0.0 | 3.2 | 0.00 | 0.00 | 0.00 | 59 | |
| 20260906130903 | 14 | 235 | 0.0 | 4.8 | 0.00 | 0.00 | 0.00 | 57 | |
| 20260906130003 | 14 | 236 | 1.6 | 6.4 | 0.00 | 0.00 | 0.00 | 56 | |
| 20260906125403 | 14 | 236 | 3.2 | 6.4 | 0.00 | 0.00 | 0.00 | 56 | |
| 20260906124503 | 13 | 236 | 1.6 | 4.8 | 0.00 | 0.00 | 0.00 | 57 | |
| 20260906123603 | 13 | 236 | 1.6 | 4.8 | 0.00 | 0.00 | 0.00 | 59 | |
| 20260906122703 | 12 | 0 | 0.0 | 0.0 | 0.00 | 0.00 | 0.00 | 60 | |
| 20260906121803 | 13 | 0 | 0.0 | 0.0 | 0.00 | 0.00 | 0.00 | 60 | |
| 20260906121113 | 13 | 0 | 0.0 | 0.0 | 0.00 | 0.00 | 0.00 | 59 | |
| 20260906120003 | 12 | 237 | 0.0 | 1.6 | 0.00 | 0.00 | 0.00 | 59 | |
| 20260906115403 | 12 | 0 | 0.0 | 0.0 | 0.00 | 0.00 | 0.00 | 60 | |
| 20260906114503 | 12 | 0 | 0.0 | 0.0 | 0.00 | 0.00 | 0.00 | 60 | |
| 20260906113603 | 12 | 0 | 0.0 | 0.0 | 0.00 | 0.00 | 0.00 | 60 | |
| 20260906112703 | 12 | 238 | 0.0 | 1.6 | 0.00 | 0.00 | 0.00 | 60 | |
| 20260906111803 | 12 | 238 | 0.0 | 3.2 | 0.00 | 0.00 | 0.00 | 60 | |
| 20260906110903 | 12 | 238 | 0.0 | 3.2 | 0.00 | 0.00 | 0.00 | 59 | |
| 20260906110003 | 12 | 237 | 1.6 | 6.4 | 0.00 | 0.00 | 0.00 | 58 | |
| 20260906105403 | 13 | 237 | 1.6 | 6.4 | 0.00 | 0.00 | 0.00 | 57 | |
| 20260906104503 | 13 | 238 | 0.0 | 3.2 | 0.00 | 0.00 | 0.00 | 58 | |
| 20260906103603 | 12 | 245 | 0.0 | 3.2 | 0.00 | 0.00 | 0.00 | 60 | |
| 20260906102703 | 12 | 0 | 0.0 | 0.0 | 0.00 | 0.00 | 0.00 | 59 | |
| 20260906101803 | 13 | 0 | 0.0 | 0.0 | 0.00 | 0.00 | 0.00 | 58 | |
| 20260906100903 | 13 | 0 | 0.0 | 0.0 | 0.00 | 0.00 | 0.00 | 58 | |
| 20260906100003 | 12 | 248 | 0.0 | 1.6 | 0.00 | 0.00 | 0.00 | 58 | |
| 20260906095403 | 12 | 248 | 0.0 | 1.6 | 0.00 | 0.00 | 0.00 | 58 | |
| 20260906094503 | 12 | 0 | 0.0 | 0.0 | 0.00 | 0.00 | 0.00 | 58 | |
| 20260906093603 | 12 | 248 | 0.0 | 3.2 | 0.00 | 0.00 | 0.00 | 58 | |
| 20260906092703 | 13 | 248 | 1.6 | 4.8 | 0.00 | 0.00 | 0.00 | 57 | |
| 20260906091803 | 13 | 232 | 3.2 | 8.0 | 0.00 | 0.00 | 0.00 | 54 | |
| 20260906090903 | 14 | 157 | 0.0 | 4.8 | 0.00 | 0.00 | 0.00 | 55 | |
| 20260906090003 | 14 | 157 | 0.0 | 4.8 | 0.00 | 0.00 | 0.00 | 54 | |
| 20260906085403 | 13 | 157 | 0.0 | 4.8 | 0.00 | 0.00 | 0.00 | 55 | |
| 20260906084503 | 13 | 157 | 0.0 | 3.2 | 0.00 | 0.00 | 0.00 | 55 | |
| 20260906083603 | 13 | 0 | 0.0 | 0.0 | 0.00 | 0.00 | 0.00 | 57 | |
| 20260906082703 | 13 | 0 | 0.0 | 0.0 | 0.00 | 0.00 | 0.00 | 56 | |
| 20260906082012 | 13 | 0 | 0.0 | 0.0 | 0.00 | 0.00 | 0.00 | 57 | |
| 20260906080903 | 13 | 0 | 0.0 | 0.0 | 0.00 | 0.00 | 0.00 | 55 | |
| 20260906080003 | 13 | 0 | 0.0 | 0.0 | 0.00 | 0.00 | 0.00 | 55 | |
| 20260906075403 | 13 | 0 | 0.0 | 0.0 | 0.00 | 0.00 | 0.00 | 54 | |
| 20260906074503 | 13 | 0 | 0.0 | 0.0 | 0.00 | 0.00 | 0.00 | 53 | |
| 20260906073603 | 13 | 0 | 0.0 | 0.0 | 0.00 | 0.00 | 0.00 | 53 | |
| 20260906072703 | 14 | 156 | 0.0 | 1.6 | 0.00 | 0.00 | 0.00 | 51 | |
| 20260906071803 | 14 | 157 | 0.0 | 4.8 | 0.00 | 0.00 | 0.00 | 51 | |
| 20260906070903 | 15 | 157 | 0.0 | 1.6 | 0.00 | 0.00 | 0.00 | 49 | |
| 20260906070003 | 15 | 157 | 0.0 | 1.6 | 0.00 | 0.00 | 0.00 | 50 | |
| 20260906065403 | 15 | 0 | 0.0 | 0.0 | 0.00 | 0.00 | 0.00 | 49 | |
| 20260906064503 | 15 | 157 | 0.0 | 3.2 | 0.00 | 0.00 | 0.00 | 49 | |
| 20260906063603 | 14 | 157 | 0.0 | 1.6 | 0.00 | 0.00 | 0.00 | 49 | |
| 20260906062703 | 15 | 157 | 0.0 | 1.6 | 0.00 | 0.00 | 0.00 | 48 | |
| 20260906061803 | 15 | 204 | 0.0 | 1.6 | 0.00 | 0.00 | 0.00 | 48 | |
| 20260906061113 | 15 | 203 | 0.0 | 1.6 | 0.00 | 0.00 | 0.00 | 48 | |
| 20260906060218 | 15 | 0 | 0.0 | 0.0 | 0.00 | 0.00 | 0.00 | 47 | |
| 20260906055614 | 15 | 0 | 0.0 | 0.0 | 0.00 | 0.00 | 0.00 | 47 | |
| 20260906054503 | 16 | 0 | 0.0 | 0.0 | 0.00 | 0.00 | 0.00 | 45 | |
| 20260906053603 | 17 | 216 | 0.0 | 3.2 | 0.00 | 0.00 | 0.00 | 43 | |
| 20260906052703 | 17 | 220 | 0.0 | 3.2 | 0.00 | 0.00 | 0.00 | 43 | |
| 20260906052013 | 17 | 214 | 0.0 | 1.6 | 0.00 | 0.00 | 0.00 | 42 | |
| 20260906051112 | 17 | 208 | 0.0 | 4.8 | 0.00 | 0.00 | 0.00 | 41 | |
| 20260906050004 | 17 | 217 | 1.6 | 4.8 | 0.00 | 0.00 | 0.00 | 41 | |
| 20260906045403 | 18 | 344 | 0.0 | 3.2 | 0.00 | 0.00 | 0.00 | 40 | |
| 20260906044503 | 18 | 42 | 0.0 | 3.2 | 0.00 | 0.00 | 0.00 | 39 | |
| 20260906043603 | 19 | 156 | 1.6 | 6.4 | 0.00 | 0.00 | 0.00 | 38 | |
| 20260906042703 | 19 | 156 | 1.6 | 6.4 | 0.00 | 0.00 | 0.00 | 37 | |
| 20260906041803 | 20 | 175 | 3.2 | 8.0 | 0.00 | 0.00 | 0.00 | 37 | |
| 20260906040903 | 20 | 187 | 4.8 | 8.0 | 0.00 | 0.00 | 0.00 | 37 | |
| 20260906040003 | 20 | 201 | 4.8 | 9.7 | 0.00 | 0.00 | 0.00 | 37 | |
| 20260906035403 | 20 | 197 | 4.8 | 9.7 | 0.00 | 0.00 | 0.00 | 37 | |
| 20260906034503 | 20 | 268 | 4.8 | 8.0 | 0.00 | 0.00 | 0.00 | 37 | |
| 20260906033603 | 20 | 360 | 4.8 | 11.3 | 0.00 | 0.00 | 0.00 | 37 | |
| 20260906032703 | 20 | 360 | 6.4 | 12.9 | 0.00 | 0.00 | 0.00 | 36 | |
| 20260906031803 | 20 | 306 | 6.4 | 11.3 | 0.00 | 0.00 | 0.00 | 36 | |
| 20260906030903 | 21 | 240 | 6.4 | 11.3 | 0.00 | 0.00 | 0.00 | 36 | |
| 20260906030003 | 21 | 242 | 6.4 | 14.5 | 0.00 | 0.00 | 0.00 | 35 | |
| 20260906025403 | 21 | 234 | 8.0 | 14.5 | 0.00 | 0.00 | 0.00 | 34 | |
| 20260906024503 | 21 | 267 | 6.4 | 14.5 | 0.00 | 0.00 | 0.00 | 34 | |
| 20260906023603 | 21 | 234 | 6.4 | 19.3 | 0.00 | 0.00 | 0.00 | 33 | |
| 20260906022703 | 22 | 238 | 6.4 | 14.5 | 0.00 | 0.00 | 0.00 | 33 | |
| 20260906022014 | 22 | 255 | 4.8 | 9.7 | 0.00 | 0.00 | 0.00 | 32 | |
| 20260906020903 | 22 | 332 | 6.4 | 16.1 | 0.00 | 0.00 | 0.00 | 31 | |
| 20260906020212 | 23 | 360 | 9.7 | 22.5 | 0.00 | 0.00 | 0.00 | 31 | |
| 20260906015614 | 23 | 360 | 9.7 | 24.1 | 0.00 | 0.00 | 0.00 | 30 | |
| 20260906014503 | 24 | 216 | 11.3 | 25.7 | 0.00 | 0.00 | 0.00 | 30 | |
| 20260906013603 | 24 | 347 | 11.3 | 33.8 | 0.00 | 0.00 | 0.00 | 30 | |
| 20260906012912 | 25 | 350 | 11.3 | 25.7 | 0.00 | 0.00 | 0.00 | 29 | |
| 20260906012014 | 25 | 353 | 14.5 | 29.0 | 0.00 | 0.00 | 0.00 | 28 | |
| 20260906010903 | 25 | 312 | 11.3 | 25.7 | 0.00 | 0.00 | 0.00 | 28 | |
| 20260906010003 | 26 | 324 | 14.5 | 29.0 | 0.00 | 0.00 | 0.00 | 27 | |
| 20260906005614 | 26 | 302 | 14.5 | 29.0 | 0.00 | 0.00 | 0.00 | 28 | |
| 20260906004503 | 26 | 210 | 11.3 | 25.7 | 0.00 | 0.00 | 0.00 | 27 | |
| 20260906003603 | 26 | 190 | 11.3 | 27.4 | 0.00 | 0.00 | 0.00 | 27 | |
| 20260906002703 | 26 | 206 | 14.5 | 32.2 | 0.00 | 0.00 | 0.00 | 27 | |
| 20260906001803 | 26 | 327 | 14.5 | 33.8 | 0.00 | 0.00 | 0.00 | 27 | |
| 20260906000903 | 26 | 360 | 14.5 | 33.8 | 0.00 | 0.00 | 0.00 | 26 | |
| 20260906000003 | 26 | 359 | 16.1 | 29.0 | 0.00 | 0.00 | 0.00 | 27 | |
| 20260905235403 | 27 | 359 | 16.1 | 30.6 | 0.00 | 0.00 | 0.00 | 27 | |
| 20260905234503 | 27 | 360 | 16.1 | 32.2 | 0.00 | 0.00 | 0.00 | 27 | |
| 20260905233603 | 27 | 360 | 17.7 | 35.4 | 0.00 | 0.00 | 0.00 | 27 | |
| 20260905232703 | 27 | 360 | 20.9 | 40.2 | 0.00 | 0.00 | 0.00 | 26 | |
| 20260905231803 | 27 | 360 | 17.7 | 32.2 | 0.00 | 0.00 | 0.00 | 26 | |
| 20260905230903 | 27 | 360 | 19.3 | 37.0 | 0.00 | 0.00 | 0.00 | 26 | |
| 20260905230213 | 27 | 360 | 17.7 | 35.4 | 0.00 | 0.00 | 0.00 | 26 | |
| 20260905225403 | 27 | 360 | 16.1 | 33.8 | 0.00 | 0.00 | 0.00 | 26 | |
| 20260905224712 | 27 | 360 | 19.3 | 35.4 | 0.00 | 0.00 | 0.00 | 26 | |
| 20260905223814 | 27 | 360 | 19.3 | 40.2 | 0.00 | 0.00 | 0.00 | 24 | |
| 20260905222703 | 27 | 360 | 22.5 | 40.2 | 0.00 | 0.00 | 0.00 | 25 | |
| 20260905221803 | 28 | 360 | 16.1 | 32.2 | 0.00 | 0.00 | 0.00 | 24 | |
| 20260905220903 | 28 | 359 | 16.1 | 48.3 | 0.00 | 0.00 | 0.00 | 25 | |
| 20260905220213 | 27 | 353 | 17.7 | 37.0 | 0.00 | 0.00 | 0.00 | 25 | |
| 20260905215403 | 27 | 328 | 17.7 | 38.6 | 0.00 | 0.00 | 0.00 | 27 | |
| 20260905214503 | 27 | 341 | 16.1 | 32.2 | 0.00 | 0.00 | 0.00 | 27 | |
| 20260905213603 | 27 | 312 | 16.1 | 30.6 | 0.00 | 0.00 | 0.00 | 27 | |
| 20260905212703 | 27 | 213 | 17.7 | 38.6 | 0.00 | 0.00 | 0.00 | 27 | |
| 20260905212014 | 27 | 197 | 19.3 | 38.6 | 0.00 | 0.00 | 0.00 | 27 | |
| 20260905210903 | 27 | 191 | 20.9 | 41.8 | 0.00 | 0.00 | 0.00 | 25 |